[ hide orbit diagram ]
For accurate long-term ephemerides, please instead use our Horizons system.This orbit viewer was implemented using two-body methods, and hence should not be used for determining accurate long-term trajectories (over several years or decades) or planetary encounter circumstances.
[ revert to old Java-based viewer ]
Orbital Elements at Epoch 2458600.5 (2019-Apr-27.0) TDB
Reference: JPL 12 (heliocentric ecliptic J2000)
Element | Value | Uncertainty (1-sigma) | Units |
e | .2186810148572135 | 2.3979e-07 | |
a | 2.561735897370185 | 3.9182e-08 | au |
q | 2.001532891537118 | 6.3243e-07 | au |
i | 13.89354365489544 | 1.5236e-05 | deg |
node | 28.51276161430305 | 1.7208e-05 | deg |
peri | 24.24705639216313 | 5.6154e-05 | deg |
M | 206.0728020762126 | 4.4099e-05 | deg |
tp | 2459240.843227700138 (2021-Jan-26.34322770) | 0.00019353 | TDB |
period | 1497.614229852913 4.10 | 3.4359e-05 9.407e-08 | d yr |
n | .2403823313266441 | 5.515e-09 | deg/d |
Q | 3.121938903203251 | 4.775e-08 | au |
|
| | Orbit Determination Parameters
Additional Information
|
[ show covariance matrix ]
Physical Parameter Table
Parameter |
Symbol |
Value |
Units |
Sigma |
Reference |
Notes |
absolute magnitude |
H |
17.2 |
|
n/a |
MPO437608 |
|
|
392763 (2012 TG56) Discovered 2010-Apr-10 by Mt. Lemmon Survey at Mount Lemmon |
Reference: | Last Updated: 2014-04-17 |
|
|